Location: Baggett Branch
(32.6074°N, 97.0167°W)
Time: 09:05:33
(UTC+00:00)

Daily predictions for brighter satellites

Satellite Brightness Start Highest point End
(mag) Time Altitude Azimuth Time Altitude Azimuth Time Altitude Azimuth
NOSS 3-1 (C) 2.6 12:00:33 11° SW 12:04:44 64° WNW 12:09:42 10° NNE
Cosmos 1980 Rocket 2.1 12:02:29 10° SSW 12:08:00 63° WNW 12:13:33 10° NNE
Exosat Rocket 3.8 12:02:53 10° NNW 12:08:13 69° ENE 12:13:10 10° SSE
NOSS 3-1 (A) 4.1 12:05:06 10° S 12:09:11 40° ESE 12:13:42 10° NE
Cosmos 1674 Rocket 3.4 12:08:46 10° N 12:13:11 79° W 12:17:32 10° S
COSMOS 2455 3.2 12:07:50 10° SW 12:13:27 41° WNW 12:19:09 10° N
IRS-1D 3.9 12:08:40 10° N 12:13:29 40° WNW 12:18:12 10° SW
USA 215 4.0 12:09:15 10° ESE 12:15:31 49° NE 12:21:48 10° NNW
Cosmos 1697 Rocket 3.9 12:18:26 17° W 12:20:36 21° WNW 12:24:45 10° NNW
Cosmos 1503 Rocket 4.1 12:16:32 10° SSW 12:21:31 52° WNW 12:26:35 10° N
Cosmos 2084 3.2 12:20:01 10° NNW 12:24:05 86° WSW 12:28:06 10° SSE
SKYMED 2 4.1 12:20:47 10° SSW 12:24:45 36° W 12:28:46 10° NNW
Cosmos 1484 Rocket 2.4 12:23:42 10° N 12:27:12 85° WNW 12:30:41 10° SSW
Cosmos 2297 Rocket 3.1 12:23:56 10° NW 12:28:37 27° WSW 12:33:17 10° SSW
COSMO-SKYMED 1 2.5 12:28:03 10° S 12:32:02 52° W 12:36:03 10° NNW
IGS 5A 3.5 12:28:45 10° N 12:32:36 50° WNW 12:36:26 10° SSW
Cosmos 1570 Rocket 4.3 12:30:09 10° NNW 12:35:05 44° WSW 12:39:59 10° S
Cosmos 2219 4.5 12:33:25 10° N 12:38:50 43° ENE 12:44:11 10° SE
CORIOLIS 4.4 12:35:20 10° NNE 12:40:43 75° ESE 12:46:03 10° S
Landsat 7 3.9 12:41:35 10° NNE 12:46:15 83° ESE 12:50:52 10° S
Cosmos 1782 Rocket 3.5 12:43:44 10° SSW 12:48:04 65° W 12:52:27 10° N
Cosmos 2173 Rocket 4.5 12:42:34 10° S 12:48:52 71° E 12:55:13 10° N
Cosmos 1908 Rocket 4.4 12:45:22 10° SW 12:49:04 28° WNW 12:52:49 10° NNW
Cosmos 2208 Rocket 4.4 12:46:56 10° NNW 12:52:04 45° WSW 12:57:12 10° S
Cosmos 2221 Rocket 4.0 12:49:53 10° NNW 12:54:10 43° W 12:58:25 10° SSW
Cosmos 2100 Rocket 4.2 12:48:37 10° S 12:54:58 83° E 13:01:22 10° N
